User: anonymous
Location: Oshawa
(43.9000°N, 78.8670°W)
Time: 10:29:09
(UTC-04:00)
Language:

Cosmos 1953 Rocket - Orbit

View from above orbital plane
View from above orbital plane
View from above satellite
View from above satellite

Ground track
Ground track

The orbit data is extracted from the following two-line orbital elements,

1 19211U 88050B   14274.81469753  .00000699  00000-0  83800-4 0  3638
2 19211 082.5279 047.5099 0023463 135.0187 336.9280 14.82472356420173
Epoch (UTC): 01 October 2014 19:33:09
Eccentricity: 0.0023463
inclination: 82.5279°
perigee height: 605 km
apogee height: 638 km
right ascension of ascending node: 47.5099°
argument of perigee: 135.0187°
revolutions per day: 14.82472356
mean anomaly at epoch: 336.9280°
orbit number at epoch: 42017

The dashed part of the orbit path shows where the satellite is in the earth's shadow,  

DLR